Wind_Speed
24 24 24 24 23 22 21 19 18 17 16 15 14 14 13 13 14 14 14 14 14 13 13 13 13 12 12 11 10 9 9 9 9 9 10 10 11 11 11 11 10 10
25 25 26 25 24 23 22 21 19 17 16 15 14 13 13 13 14 15 15 15 16 16 16 15 15 14 13 12 10 9 8 8 9 9 10 10 10 11 11 11 10 10
26 27 27 26 25 24 23 22 20 18 17 15 13 13 13 14 15 16 17 18 19 19 18 17 16 15 14 13 11 10 8 7 7 7 8 9 10 10 11 10 10 9
27 27 28 28 27 26 24 23 21 20 17 16 15 15 15 16 17 19 20 21 21 19 18 16 14 13 12 11 10 9 7 6 5 5 5 6 8 10 10 11 10 10
28 29 30 29 28 27 25 24 23 21 19 18 17 17 17 18 20 22 23 22 21 19 17 15 13 11 10 9 8 7 6 5 4 3 3 3 3 6 9 10 11 10
30 30 31 30 29 27 26 25 24 23 21 19 19 19 19 21 23 24 24 23 21 19 16 14 12 10 9 8 7 6 5 4 3 2 1 1 1 1 4 7 10 10
31 31 31 30 29 28 27 27 26 24 22 21 20 20 21 23 25 26 25 23 21 18 16 14 12 10 9 8 7 6 5 4 3 3 3 2 2 1 1 2 6 9
31 31 31 30 29 28 28 27 27 26 24 22 22 22 23 25 27 26 25 23 21 18 16 13 11 9 8 7 7 6 6 5 4 4 4 4 4 3 3 2 3 5
32 32 32 31 29 28 28 28 28 27 25 24 24 24 25 26 27 27 26 24 21 19 16 13 11 9 8 7 7 6 6 6 5 5 5 6 5 5 6 5 4 3
33 32 32 31 30 29 28 29 29 28 26 26 26 26 26 28 28 27 26 24 21 19 16 14 12 10 9 8 7 7 7 7 6 6 7 7 7 7 7 7 6 4
32 32 32 31 30 29 29 29 30 29 28 27 27 27 28 29 29 28 27 25 22 20 17 15 13 11 10 9 8 7 7 8 8 8 8 8 8 8 8 9 8 7
31 31 32 31 31 30 29 30 30 30 29 28 28 28 29 30 30 30 28 26 23 21 19 16 14 12 11 10 9 8 9 9 10 10 10 10 9 9 9 9 9 8
31 30 31 32 32 31 31 30 30 31 30 29 29 29 29 30 31 31 30 28 25 22 20 17 15 13 11 10 10 10 10 11 11 11 11 11 10 10 10 10 10 9
30 30 31 32 33 33 32 31 31 31 32 31 30 29 29 30 31 32 31 29 26 23 21 18 15 13 12 11 11 12 12 13 12 12 12 11 11 11 10 10 11 11
31 31 31 32 33 33 33 32 31 32 33 32 31 30 30 31 32 32 32 30 27 24 21 18 15 14 12 12 13 13 14 13 12 12 12 12 12 11 11 11 12 12
32 31 31 32 33 33 33 33 32 32 33 33 32 31 31 31 31 32 31 30 28 25 21 19 16 15 14 14 14 14 14 13 12 12 12 12 12 12 12 13 13 13
33 32 31 31 32 33 34 34 33 33 33 33 33 32 31 31 31 31 31 30 28 25 22 20 18 16 15 15 16 15 15 14 13 13 12 12 13 13 14 14 14 14
34 33 31 31 32 34 34 35 34 33 33 33 33 33 32 31 31 31 31 30 29 26 23 21 20 18 16 16 17 16 16 15 14 14 13 13 13 14 14 15 15 15
35 33 32 32 33 34 35 35 35 34 33 33 34 34 33 32 31 31 31 30 29 26 25 24 22 19 17 17 18 17 16 16 15 15 14 13 14 14 14 15 16 16
35 34 33 33 33 35 35 35 35 34 33 33 34 35 34 32 32 31 30 30 29 28 27 26 23 20 19 19 19 18 17 17 16 16 15 15 15 15 15 15 16 17
35 34 34 33 34 35 36 36 35 35 34 34 34 34 34 34 33 32 31 30 30 29 28 27 25 23 22 21 20 19 18 18 17 16 17 17 17 16 16 16 17 17
34 35 35 34 35 35 36 36 35 35 35 34 34 34 34 34 34 33 32 32 31 31 30 29 27 25 24 23 21 20 19 19 18 18 18 18 18 18 17 17 17 17
34 35 35 35 35 35 35 35 35 35 35 34 33 34 34 35 35 34 34 34 33 32 31 30 28 26 25 24 23 21 21 20 19 19 19 19 19 19 18 18 18 18
33 34 35 35 35 34 34 35 35 35 34 34 33 34 35 35 35 35 35 35 34 33 31 30 29 27 25 25 24 23 22 21 20 20 20 20 21 20 18 18 18 19
32 33 34 35 34 34 35 35 35 34 34 33 33 34 35 36 36 35 35 34 34 32 31 30 29 27 26 26 26 25 23 22 21 21 20 21 22 20 19 19 19 20
32 33 34 34 34 34 35 35 34 34 33 32 32 33 34 35 35 35 34 33 33 32 31 30 29 27 27 27 27 26 25 23 22 21 21 22 23 21 20 20 20 20
Wind_Direction
195 192 195 199 199 200 201 201 202 204 206 208 207 205 200 193 187 182 178 174 170 166 161 156 153 153 155 159 163 169 175 179 181 181 181 181 182 181 179 175 172 169
195 195 199 202 201 201 201 201 202 205 206 207 207 205 203 196 187 180 175 169 161 155 149 144 141 139 139 139 142 149 160 172 180 185 189 190 192 193 191 187 183 180
195 196 200 203 203 201 201 200 202 204 206 205 203 203 202 195 186 177 169 161 153 148 145 141 138 135 133 131 130 130 134 143 157 174 189 197 201 204 203 203 201 201
196 197 201 204 204 202 200 199 201 203 204 203 200 200 198 191 182 173 164 159 153 150 148 146 143 140 137 136 134 133 130 127 127 138 165 192 207 214 217 219 221 223
199 199 203 205 205 203 200 199 200 201 202 201 199 198 195 186 178 170 165 161 158 156 155 153 152 149 147 146 145 145 145 143 137 126 128 154 198 220 227 230 231 231
202 201 204 207 206 203 200 199 200 200 200 201 198 197 193 184 177 172 169 167 164 163 162 160 159 157 155 155 155 157 161 167 174 175 172 144 125 215 232 235 234 232
206 205 207 209 209 205 201 199 200 200 200 199 198 197 192 184 179 176 174 171 169 168 168 166 166 164 163 164 165 168 175 184 197 212 231 255 283 309 309 252 236 231
210 209 209 211 211 208 205 201 200 201 200 199 198 198 193 186 183 181 178 176 174 174 174 172 172 172 175 178 177 181 188 196 207 218 230 246 260 270 286 294 258 234
215 213 212 212 213 211 208 204 203 203 201 199 199 199 194 190 188 185 182 181 180 180 180 178 179 183 189 193 192 194 202 207 212 219 229 239 247 254 261 271 281 264
217 216 215 214 213 213 211 208 207 206 203 201 201 200 196 193 191 188 186 185 185 187 186 185 188 193 199 205 205 206 213 218 221 225 232 239 244 246 252 261 270 276
219 219 219 217 216 215 214 211 210 208 206 204 204 201 198 196 193 191 190 190 192 194 192 191 194 199 207 214 218 219 219 221 226 233 239 245 249 248 249 257 266 269
221 221 221 220 219 218 217 214 212 211 209 208 207 204 201 199 195 193 193 195 198 199 197 197 199 205 212 220 226 229 227 226 230 237 243 249 255 257 255 258 265 267
220 222 223 223 221 220 219 217 214 213 212 211 209 207 205 202 198 196 197 200 203 203 201 201 204 209 216 222 228 231 230 231 236 241 247 253 258 263 265 264 266 269
219 220 223 225 223 221 220 219 216 214 214 213 212 210 208 206 202 200 201 203 205 206 205 205 208 213 220 224 226 229 231 234 240 248 254 260 263 265 267 267 267 268
220 220 221 224 224 222 221 220 218 216 215 215 213 213 211 209 206 204 204 205 208 209 209 210 213 220 228 231 228 225 229 236 243 251 258 264 268 269 268 267 267 266
222 222 222 223 224 224 223 222 220 218 217 217 215 214 214 212 210 208 207 208 210 212 213 215 221 228 233 237 235 229 231 237 243 249 256 262 268 271 271 269 268 264
224 223 223 222 223 223 223 223 222 220 219 218 217 217 216 215 213 211 210 210 212 215 216 220 228 234 237 240 240 237 237 239 242 246 251 256 261 266 269 271 270 266
226 225 224 223 222 223 223 223 223 222 220 219 219 219 218 217 216 214 213 213 214 216 220 227 233 238 241 242 242 243 245 246 247 248 248 251 256 261 266 269 269 265
227 226 226 224 222 223 224 223 223 223 222 221 221 220 220 219 218 217 217 216 217 219 225 231 236 241 245 245 244 248 252 254 254 253 252 253 257 261 264 266 265 263
227 227 227 226 224 224 224 224 224 223 223 222 221 221 221 220 220 220 220 219 220 223 229 234 239 245 247 246 245 249 254 256 257 257 257 257 259 262 263 262 261 259
228 227 227 227 226 225 226 226 225 225 224 223 223 221 221 221 222 222 222 222 223 227 231 237 242 246 247 245 245 248 253 255 257 257 257 258 260 262 263 262 260 256
229 228 229 230 229 228 228 227 227 227 227 226 225 223 222 222 223 223 224 225 227 229 234 239 243 244 245 244 246 249 253 256 257 257 256 257 259 261 262 263 260 254
229 229 230 232 232 232 230 229 229 229 229 228 226 224 223 223 224 224 225 227 229 232 236 240 242 242 243 244 246 250 253 255 256 256 256 257 259 260 262 262 258 252
231 230 231 233 234 234 233 231 230 229 229 228 226 225 224 224 225 225 227 229 231 234 238 240 242 242 242 244 246 249 252 254 255 256 257 258 259 260 261 259 255 250
233 231 231 233 234 234 233 232 230 229 229 227 226 225 224 225 226 227 229 232 234 237 240 242 243 243 243 244 246 248 251 252 254 256 257 258 259 261 260 257 253 250
233 231 232 232 233 233 233 232 231 230 229 227 226 226 226 226 228 229 232 235 237 239 241 243 245 244 243 244 246 248 251 253 254 257 258 259 260 261 261 258 254 250
Height
5938 5939 5940 5941 5942 5943 5945 5946 5948 5949 5950 5950 5951 5952 5954 5955 5955 5956 5957 5958 5958 5959 5960 5960 5960 5961 5961 5962 5962 5963 5964 5964 5965 5965 5965 5965 5965 5965 5965 5965 5965 5965
5936 5937 5939 5940 5941 5943 5944 5945 5947 5948 5949 5950 5951 5952 5953 5954 5955 5956 5957 5958 5958 5959 5960 5960 5961 5961 5962 5962 5963 5963 5964 5964 5964 5965 5965 5965 5965 5965 5965 5965 5965 5965
5934 5936 5937 5938 5940 5941 5943 5944 5946 5947 5948 5949 5951 5952 5953 5954 5954 5955 5956 5958 5958 5959 5960 5960 5961 5961 5962 5962 5963 5963 5964 5964 5964 5964 5965 5965 5965 5965 5966 5966 5966 5966
5933 5934 5935 5937 5938 5939 5941 5943 5945 5946 5947 5949 5950 5951 5952 5953 5954 5955 5956 5957 5958 5959 5960 5961 5961 5962 5962 5963 5963 5963 5964 5964 5964 5964 5964 5965 5965 5965 5965 5966 5966 5966
5931 5932 5933 5935 5936 5938 5940 5942 5943 5945 5946 5947 5949 5950 5951 5952 5953 5954 5956 5957 5958 5959 5960 5961 5961 5962 5962 5963 5963 5963 5964 5964 5964 5965 5965 5965 5965 5965 5965 5965 5966 5966
5928 5930 5931 5933 5934 5936 5938 5940 5942 5943 5945 5946 5948 5949 5950 5951 5952 5954 5955 5956 5958 5959 5960 5961 5961 5962 5962 5963 5963 5963 5964 5964 5964 5965 5965 5965 5965 5965 5965 5965 5965 5966
5927 5929 5930 5931 5933 5935 5937 5938 5940 5942 5943 5945 5946 5948 5949 5950 5952 5953 5954 5956 5957 5958 5959 5960 5961 5962 5962 5963 5963 5964 5964 5964 5964 5964 5965 5965 5965 5965 5965 5965 5965 5965
5926 5927 5928 5930 5932 5933 5935 5937 5938 5940 5942 5943 5945 5946 5948 5949 5951 5952 5954 5955 5956 5957 5959 5959 5960 5961 5962 5962 5963 5963 5964 5964 5964 5964 5964 5965 5965 5965 5965 5965 5965 5965
5924 5925 5926 5928 5930 5932 5934 5935 5937 5938 5940 5942 5943 5945 5946 5948 5950 5952 5953 5954 5955 5957 5957 5958 5959 5960 5961 5961 5962 5963 5963 5963 5964 5964 5964 5964 5965 5965 5965 5965 5965 5965
5922 5923 5925 5927 5928 5930 5932 5933 5935 5937 5938 5940 5941 5943 5945 5947 5949 5950 5952 5953 5955 5955 5956 5957 5958 5959 5960 5960 5961 5962 5962 5963 5963 5963 5964 5964 5964 5964 5964 5964 5965 5965
5920 5922 5923 5925 5927 5929 5930 5932 5933 5935 5937 5938 5940 5941 5943 5945 5947 5949 5951 5952 5953 5954 5955 5956 5957 5958 5959 5959 5960 5961 5961 5962 5962 5962 5963 5963 5963 5963 5964 5964 5964 5964
5918 5920 5922 5924 5926 5927 5928 5930 5931 5933 5935 5937 5938 5940 5942 5943 5945 5947 5949 5951 5952 5953 5954 5955 5956 5957 5957 5958 5959 5959 5960 5961 5961 5961 5961 5962 5962 5962 5963 5963 5963 5963
5916 5918 5920 5921 5923 5925 5926 5927 5929 5931 5933 5935 5936 5938 5940 5942 5944 5946 5947 5949 5950 5951 5952 5953 5954 5955 5956 5957 5958 5958 5959 5959 5959 5960 5960 5960 5961 5961 5961 5962 5962 5962
5913 5915 5917 5918 5920 5922 5923 5925 5927 5929 5931 5933 5934 5936 5938 5940 5942 5944 5945 5947 5948 5950 5951 5952 5953 5954 5955 5956 5956 5957 5957 5958 5958 5958 5959 5959 5960 5960 5960 5961 5961 5961
5911 5912 5914 5915 5917 5919 5921 5923 5925 5927 5928 5930 5932 5934 5936 5938 5940 5941 5943 5945 5947 5948 5949 5950 5952 5953 5954 5954 5955 5955 5956 5956 5957 5957 5958 5958 5958 5959 5959 5959 5960 5960
5908 5909 5911 5913 5915 5917 5919 5921 5922 5924 5926 5928 5930 5932 5934 5936 5938 5940 5942 5944 5945 5946 5948 5949 5950 5951 5952 5952 5953 5954 5954 5955 5956 5956 5956 5957 5957 5957 5958 5958 5958 5959
5905 5907 5909 5911 5913 5914 5916 5918 5920 5922 5924 5926 5928 5930 5932 5934 5936 5938 5940 5942 5943 5945 5946 5947 5948 5949 5950 5951 5951 5952 5953 5953 5954 5955 5955 5956 5956 5956 5956 5956 5957 5957
5903 5905 5906 5908 5910 5912 5913 5915 5917 5919 5922 5924 5926 5928 5930 5932 5934 5936 5938 5940 5941 5943 5944 5945 5946 5947 5949 5949 5949 5950 5951 5952 5952 5953 5954 5954 5954 5954 5954 5954 5955 5955
5901 5903 5904 5906 5907 5909 5911 5912 5915 5917 5919 5922 5923 5925 5927 5930 5932 5934 5936 5937 5939 5941 5942 5943 5944 5946 5947 5947 5948 5948 5949 5949 5950 5951 5951 5952 5952 5952 5952 5952 5953 5953
5899 5901 5902 5904 5905 5906 5908 5910 5912 5915 5917 5919 5920 5922 5925 5927 5930 5931 5933 5935 5937 5939 5940 5941 5942 5944 5945 5945 5946 5946 5947 5947 5948 5948 5949 5950 5950 5950 5950 5950 5950 5951
5896 5898 5900 5901 5903 5904 5906 5908 5910 5912 5914 5916 5918 5920 5923 5925 5927 5929 5931 5933 5935 5936 5937 5939 5940 5941 5942 5943 5944 5944 5945 5945 5946 5947 5947 5947 5948 5948 5948 5948 5948 5949
5894 5896 5897 5899 5900 5902 5904 5906 5908 5910 5912 5913 5915 5918 5920 5922 5924 5926 5929 5930 5932 5934 5935 5936 5938 5939 5940 5941 5941 5942 5943 5943 5944 5945 5945 5945 5946 5946 5946 5946 5946 5947
5891 5893 5895 5896 5898 5900 5902 5904 5906 5907 5909 5911 5913 5915 5918 5920 5922 5924 5926 5927 5929 5931 5933 5934 5935 5936 5937 5938 5939 5940 5940 5941 5942 5942 5943 5943 5943 5944 5944 5944 5944 5944
5889 5891 5892 5894 5896 5898 5900 5901 5903 5904 5906 5908 5910 5913 5915 5917 5918 5921 5923 5924 5926 5928 5930 5931 5932 5934 5935 5936 5936 5937 5938 5939 5939 5940 5940 5941 5941 5941 5942 5942 5942 5942
5886 5888 5889 5891 5893 5895 5896 5898 5900 5901 5903 5905 5908 5910 5912 5914 5916 5918 5920 5922 5924 5926 5927 5928 5929 5931 5932 5933 5934 5935 5935 5936 5937 5937 5938 5938 5938 5939 5939 5939 5939 5940
5883 5884 5886 5888 5890 5892 5893 5895 5897 5898 5901 5903 5905 5907 5909 5911 5914 5916 5918 5919 5921 5923 5924 5925 5926 5928 5929 5930 5931 5932 5933 5934 5934 5935 5935 5935 5935 5936 5936 5937 5937 5937